AV279 Weather Reports


time (UTC)temp
F
wind
direction
speed
knots
gust
knots
rain 1hr
in
rain 24hr
in
rain mn
in
humidity
%
barometer
mb
20260904201229 66 270 0.9 2.6 0.00 0.02 0.02 74 1016.9
20260904200218 66 248 0.9 2.6 0.00 0.02 0.02 74 1016.6
20260904195229 66 270 1.7 2.6 0.00 0.02 0.02 74 1016.4
20260904194229 66 270 0.9 1.7 0.00 0.02 0.02 73 1016.2
20260904193239 67 270 0.9 1.7 0.00 0.02 0.02 73 1016.1
20260904192300 67 293 1.7 2.6 0.00 0.02 0.02 74 1015.8
20260904191241 67 270 1.7 2.6 0.00 0.02 0.02 74 1015.8
20260904190240 67 203 2.6 3.5 0.00 0.02 0.02 77 1015.7
20260904185220 67 270 2.6 5.2 0.00 0.02 0.02 83 1015.7
20260904184220 67 248 0.9 1.7 0.00 0.02 0.02 86 1015.5
20260904183240 67 248 0.9 1.7 0.00 0.02 0.02 85 1015.5
20260904182306 68 225 1.7 3.5 0.00 0.02 0.02 85 1015.2
20260904181231 68 248 1.7 2.6 0.00 0.02 0.02 85 1015.3
20260904180250 68 270 1.7 3.5 0.00 0.02 0.02 84 1015.2
20260904175220 68 248 2.6 3.5 0.00 0.02 0.02 84 1015.2
20260904174240 68 248 1.7 3.5 0.00 0.02 0.02 84 1015.0
20260904173220 69 270 2.6 3.5 0.00 0.02 0.02 84 1015.0
20260904172220 69 270 1.7 3.5 0.00 0.02 0.02 84 1014.8
20260904171250 69 225 2.6 5.2 0.00 0.02 0.02 83 1014.7
20260904170241 69 248 2.6 4.3 0.00 0.02 0.02 83 1014.6
20260904165241 70 270 3.5 6.1 0.00 0.02 0.02 83 1014.6
20260904164320 70 270 5.2 9.6 0.00 0.02 0.02 82 1014.3
20260904163311 70 248 2.6 4.3 0.00 0.02 0.02 81 1014.4
20260904162230 70 270 4.3 7.0 0.00 0.02 0.02 81 1014.3
20260904161230 71 248 4.3 6.1 0.00 0.02 0.02 81 1014.1
20260904160220 71 293 4.3 7.8 0.00 0.02 0.02 81 1013.9
20260904155220 71 270 5.2 7.8 0.00 0.02 0.02 80 1013.9
20260904154230 72 248 4.3 7.0 0.00 0.02 0.02 79 1013.8
20260904153230 72 270 3.5 6.1 0.00 0.02 0.02 77 1013.9
20260904152230 72 248 2.6 3.5 0.00 0.02 0.02 77 1013.8
20260904151230 72 248 3.5 5.2 0.00 0.02 0.02 77 1013.8
20260904150230 72 270 3.5 8.7 0.00 0.02 0.02 77 1013.9
20260904145230 72 270 3.5 6.1 0.00 0.02 0.02 76 1013.8
20260904144220 72 248 5.2 15.6 0.00 0.02 0.02 76 1013.8
20260904143417 72 293 3.5 8.7 0.00 0.02 0.02 78 1013.8
20260904142239 71 248 2.6 3.5 0.00 0.02 0.02 79 1013.8
20260904141230 71 248 4.3 7.0 0.00 0.02 0.02 81 1013.8
20260904140240 70 248 2.6 4.3 0.00 0.02 0.02 81 1013.8
20260904135252 70 270 3.5 6.1 0.00 0.02 0.02 80 1013.8
20260904134220 72 270 5.2 8.7 0.00 0.02 0.02 77 1013.6
20260904133219 73 248 2.6 4.3 0.00 0.02 0.02 76 1013.3
20260904132254 72 270 2.6 6.1 0.00 0.02 0.02 77 1013.3
20260904131220 71 248 3.5 7.0 0.00 0.02 0.02 79 1013.2
20260904130241 71 248 0.9 2.6 0.00 0.02 0.02 80 1013.0
20260904125242 71 225 5.2 11.3 0.00 0.02 0.02 82 1012.6
20260904124241 70 248 3.5 7.0 0.00 0.02 0.02 83 1012.6
20260904123221 70 270 2.6 6.1 0.00 0.02 0.02 83 1012.9
20260904122221 70 270 3.5 6.1 0.00 0.02 0.02 83 1013.2
20260904121300 70 270 4.3 7.0 0.00 0.02 0.02 87 1013.1
20260904120431 70 248 4.3 8.7 0.00 0.02 0.02 89 1012.9
20260904120141 70 270 3.5 6.1 0.00 0.02 0.02 89 1012.8
20260904115313 70 270 4.3 6.1 0.00 0.02 0.02 88 1012.8
20260904115000 70 270 4.3 7.0 0.00 0.02 0.02 88 1012.8
20260904113919 71 248 4.3 7.0 0.00 0.02 0.02 87 1012.5
20260904113000 71 270 6.1 9.6 0.00 0.02 0.02 85 1012.4
20260904111930 71 270 5.2 9.6 0.00 0.02 0.02 86 1012.4
20260904110950 71 270 5.2 11.3 0.00 0.02 0.02 85 1012.4
20260904105959 71 248 7.8 12.2 0.00 0.02 0.02 85 1012.3
20260904104919 71 270 7.8 12.2 0.00 0.02 0.02 85 1012.5
20260904104133 71 270 6.1 7.8 0.00 0.02 0.02 85 1012.6
20260904103341 71 248 6.1 9.6 0.00 0.02 0.02 84 1012.4
20260904102330 71 270 4.3 7.8 0.00 0.02 0.02 84 1012.6
20260904101319 71 293 5.2 8.7 0.00 0.02 0.02 84 1012.5
20260904100319 71 270 6.1 7.8 0.00 0.02 0.02 84 1012.5
20260904095330 71 270 7.0 13.0 0.00 0.02 0.02 85 1012.6
20260904094319 71 225 5.2 10.4 0.00 0.02 0.02 85 1012.5
20260904093319 71 270 7.0 14.8 0.00 0.02 0.02 85 1012.5
20260904092339 72 270 6.1 12.2 0.00 0.02 0.02 85 1012.5
20260904091351 71 270 3.5 7.0 0.00 0.02 0.02 85 1012.3
20260904090319 71 270 5.2 8.7 0.00 0.02 0.02 85 1012.3
20260904085330 71 248 6.1 10.4 0.00 0.02 0.02 86 1012.2
20260904084319 71 270 5.2 8.7 0.00 0.02 0.02 87 1012.0
20260904083330 71 270 7.0 12.2 0.00 0.02 0.02 87 1011.9
20260904082339 71 270 4.3 7.8 0.00 0.02 0.02 88 1011.7
20260904081329 71 248 7.0 11.3 0.00 0.02 0.02 88 1011.9
20260904080319 71 225 6.1 12.2 0.00 0.02 0.02 89 1011.9
20260904075518 70 248 7.0 9.6 0.00 0.02 0.02 91 1012.0
20260904074749 69 270 5.2 8.7 0.00 0.02 0.02 91 1012.1
20260904073738 69 270 4.3 6.1 0.00 0.02 0.02 90 1012.3
20260904072749 69 248 6.1 9.6 0.00 0.02 0.02 89 1012.3
20260904071719 69 270 4.3 7.0 0.00 0.02 0.02 89 1012.4
20260904070719 70 270 6.1 8.7 0.00 0.02 0.02 88 1012.4
20260904065759 70 248 5.2 7.8 0.00 0.02 0.02 88 1012.2
20260904064739 69 248 5.2 9.6 0.00 0.02 0.02 89 1012.2
20260904063740 69 248 9.6 17.4 0.00 0.02 0.02 90 1012.1
20260904062718 69 225 7.8 15.6 0.00 0.02 0.02 90 1011.9
20260904061719 69 225 8.7 16.5 0.01 0.02 0.02 91 1011.8
20260904060740 68 270 7.0 14.8 0.01 0.02 0.02 92 1012.2
20260904055718 68 225 6.1 9.6 0.01 0.02 0.02 92 1012.2
20260904054729 68 225 7.8 13.0 0.01 0.02 0.02 92 1012.3
20260904053719 68 225 5.2 8.7 0.01 0.02 0.02 92 1012.3
20260904052740 68 225 6.1 12.2 0.02 0.02 0.02 92 1012.4
20260904051740 68 225 5.2 8.7 0.01 0.01 0.01 92 1012.5
20260904050800 68 270 3.5 7.0 0.01 0.01 0.01 91 1012.7
20260904045729 68 270 4.3 7.8 0.01 0.01 0.01 91 1013.0
20260904044729 68 225 1.7 5.2 0.01 0.01 0.01 92 1013.2
20260904043811 69 270 1.7 3.5 0.01 0.01 0.01 91 1013.3
20260904042740 69 248 2.6 5.2 0.00 0.00 0.00 91 1013.5
20260904041740 69 225 3.5 7.0 0.00 0.00 0.00 91 1013.4
20260904040718 69 270 2.6 3.5 0.00 0.00 0.00 91 1013.5
20260904035740 69 248 4.3 7.0 0.00 0.00 0.00 91 1013.5
20260904034718 69 248 5.2 7.0 0.00 0.00 0.00 91 1013.5
20260904033809 69 225 6.1 7.8 0.00 0.00 0.00 90 1013.6
20260904032729 69 270 5.2 7.8 0.00 0.00 0.00 90 1013.6
20260904031718 69 225 6.1 9.6 0.00 0.00 0.00 90 1013.6
20260904030729 69 225 6.1 15.6 0.00 0.00 0.00 90 1013.8
20260904025719 69 270 6.1 11.3 0.00 0.00 0.00 90 1014.1
20260904024718 69 248 4.3 7.0 0.00 0.00 0.00 90 1014.1
20260904023719 69 225 4.3 7.8 0.00 0.00 0.00 90 1014.2
20260904022718 68 270 4.3 8.7 0.00 0.00 0.00 90 1014.2
20260904021718 68 225 7.0 11.3 0.00 0.00 0.00 90 1014.3
20260904020718 68 225 6.1 9.6 0.00 0.00 0.00 90 1014.4
20260904015750 68 248 5.2 11.3 0.00 0.00 0.00 90 1014.4
20260904014750 68 248 4.3 10.4 0.00 0.00 0.00 90 1014.7
20260904013751 68 248 4.3 9.6 0.00 0.00 0.00 90 1014.8
20260904012752 68 248 4.3 7.8 0.00 0.00 0.00 90 1014.9
20260904011729 68 225 1.7 3.5 0.00 0.00 0.00 90 1015.0
20260904010718 68 270 2.6 3.5 0.00 0.00 0.00 89 1015.2
20260904005729 68 270 4.3 7.8 0.00 0.00 0.00 89 1015.3
20260904004701 68 248 4.3 5.2 0.00 0.00 0.00 89 1015.3
20260904003720 68 270 5.2 9.6 0.00 0.00 0.00 89 1015.5
20260904002720 68 248 4.3 6.1 0.00 0.00 0.00 89 1015.7
20260904001740 68 225 4.3 8.7 0.00 0.00 0.00 89 1015.7
20260904000742 68 248 4.3 7.8 0.00 0.00 0.00 89 1015.7
20260903235718 69 225 4.3 7.0 0.00 0.00 0.00 89 1015.7
20260903234740 69 248 4.3 7.0 0.00 0.00 0.00 89 1015.7
20260903233729 69 248 5.2 8.7 0.00 0.00 0.00 89 1015.8
20260903232718 69 248 4.3 6.1 0.00 0.00 0.00 89 1015.9
20260903231739 69 248 5.2 11.3 0.00 0.00 0.00 89 1016.0
20260903230718 69 248 5.2 9.6 0.00 0.00 0.00 90 1016.0
20260903225719 69 180 4.3 7.8 0.00 0.00 0.00 90 1016.1
20260903224718 69 270 2.6 5.2 0.00 0.00 0.00 90 1016.3
20260903223719 70 293 3.5 5.2 0.00 0.00 0.00 90 1016.4
20260903222719 70 248 2.6 3.5 0.00 0.00 0.00 89 1016.5
20260903221718 70 270 3.5 6.1 0.00 0.00 0.00 89 1016.6
20260903220729 70 225 5.2 7.8 0.00 0.00 0.00 89 1016.7
20260903215718 70 270 2.6 5.2 0.00 0.00 0.00 89 1016.6
20260903214718 70 248 3.5 7.0 0.00 0.00 0.00 89 1016.6
20260903213811 70 225 3.5 5.2 0.00 0.00 0.00 89 1016.7
20260903212718 70 270 2.6 5.2 0.00 0.00 0.00 89 1016.7
20260903211718 70 225 2.6 4.3 0.00 0.00 0.00 88 1016.6
20260903210718 70 248 6.1 9.6 0.00 0.00 0.00 89 1016.6
20260903205718 70 270 4.3 7.0 0.00 0.00 0.00 89 1016.9
20260903204729 70 248 5.2 10.4 0.00 0.00 0.00 89 1016.9
20260903203729 70 270 3.5 5.2 0.00 0.00 0.00 89 1017.0
20260903202752 70 248 6.1 10.4 0.00 0.00 0.00 89 1017.2
20260903201718 70 270 2.6 4.3 0.00 0.00 0.00 90 1017.4